This is the latest recevied weather packets stored in our database for station/object OE5RBO. If no packets are shown the sender has not sent any weather packets the latest 10 day(s).
| Time | Temp. | Humidity | Pressure | Rain* | Wind** | Luminosity | Snow |
|---|---|---|---|---|---|---|---|
| 1788547563 | 26.67° C | 50% | 1015.3 hPa | 0 mm | - | - | - |
| 1788546963 | 27.22° C | 51% | 1015.2 hPa | 0 mm | - | - | - |
| 1788545762 | 27.22° C | 51% | 1014.9 hPa | 0 mm | - | - | - |
| 1788545162 | 27.22° C | 53% | 1014.8 hPa | 0 mm | - | - | - |
| 1788544561 | 27.78° C | 52% | 1014.7 hPa | 0 mm | - | - | - |
| 1788543961 | 28.89° C | 50% | 1014.6 hPa | 0 mm | - | - | - |
| 1788543361 | 29.44° C | 48% | 1014.4 hPa | 0 mm | - | - | - |
| 1788542761 | 29.44° C | 47% | 1014.4 hPa | 0 mm | - | - | - |
| 1788542160 | 30° C | 46% | 1014.4 hPa | 0 mm | - | - | - |
| 1788541560 | 30.56° C | 44% | 1014.5 hPa | 0 mm | - | - | - |
| 1788540960 | 31.11° C | 43% | 1014.5 hPa | 0 mm | - | - | - |
| 1788540359 | 31.11° C | 42% | 1014.6 hPa | 0 mm | - | - | - |
| 1788539778 | 31.67° C | 41% | 1014.6 hPa | 0 mm | - | - | - |
| 1788539158 | 31.67° C | 41% | 1014.6 hPa | 0 mm | - | - | - |
| 1788538558 | 31.11° C | 42% | 1014.6 hPa | 0 mm | - | - | - |
| 1788537357 | 31.11° C | 41% | 1014.8 hPa | 0 mm | - | - | - |
| 1788536757 | 31.11° C | 41% | 1014.9 hPa | 0 mm | - | - | - |
| 1788536156 | 31.11° C | 40% | 1015.1 hPa | 0 mm | - | - | - |
| 1788535556 | 31.11° C | 41% | 1015.2 hPa | 0 mm | - | - | - |
| 1788534956 | 31.11° C | 42% | 1015.3 hPa | 0 mm | - | - | - |
| 1788534355 | 30.56° C | 42% | 1015.4 hPa | 0 mm | - | - | - |
| 1788533755 | 30.56° C | 41% | 1015.4 hPa | 0 mm | - | - | - |
| 1788533154 | 31.11° C | 42% | 1015.5 hPa | 0 mm | - | - | - |
| 1788532554 | 31.11° C | 41% | 1015.6 hPa | 0 mm | - | - | - |
| 1788531954 | 31.11° C | 43% | 1015.8 hPa | 0 mm | - | - | - |
* Rain since midnight (hover to see other rain measurements)
** Current wind speed in m/s (hover to see current wind gust speed)